DLH446 EDDF-KDEN

Flight info

Callsign DLH446
Flight time N/A
Altitude 34000
Route OBOKA3M/25C OBOKA Z28 DIBIR DCT BUDIP DCT MIMVA L602 NALAX L46 ESHIN N110 ERKIT DCT NAVSO DCT GOMUP/M082F360 NATA LIBOR N974B GRIBS/N0478F360 N974B JELCO/N0480F380 DCT TUNNI DCT GOSEP DCT 55N090W DCT HML DCT KP06A DCT KD81Y DCT NYTRO AALLE4
Aircraft A346/H-SDE2E3FGHIJ3J4J5M1RWXY/LB1D1

Departure

Time 2026-05-07 08:25
Airport Frankfurt Main Airport (EDDF)

Arrival

Time N/A
Airport Denver International Airport (KDEN)
Time Latitude Longitude Altitude Speed Heading
2026-05-07 08:00 50.04657 8.56054 354 ft 0 kts 339°
2026-05-07 08:14 50.04659 8.56053 362 ft 0 kts 339°
2026-05-07 08:14 50.04663 8.56050 361 ft 1 kts 339°
2026-05-07 08:14 50.04664 8.56050 361 ft 0 kts 339°
2026-05-07 08:15 50.04656 8.56054 354 ft 3 kts 339°
2026-05-07 08:15 50.04626 8.56072 362 ft 7 kts 335°
2026-05-07 08:15 50.04598 8.56122 363 ft 4 kts 273°
2026-05-07 08:15 50.04598 8.56134 363 ft 1 kts 260°
2026-05-07 08:16 50.04599 8.56141 363 ft 0 kts 252°
2026-05-07 08:17 50.04598 8.56140 363 ft 3 kts 252°
2026-05-07 08:17 50.04572 8.56033 359 ft 15 kts 241°
2026-05-07 08:18 50.04500 8.55951 360 ft 8 kts 200°
2026-05-07 08:18 50.04438 8.55933 361 ft 10 kts 184°
2026-05-07 08:18 50.04363 8.55929 359 ft 11 kts 174°
2026-05-07 08:18 50.04285 8.55974 360 ft 13 kts 144°
2026-05-07 08:19 50.04206 8.56048 358 ft 14 kts 157°
2026-05-07 08:19 50.04121 8.56121 362 ft 14 kts 127°
2026-05-07 08:19 50.04124 8.56258 359 ft 14 kts 71°
2026-05-07 08:19 50.04157 8.56401 360 ft 14 kts 70°
2026-05-07 08:20 50.04192 8.56550 358 ft 15 kts 69°
2026-05-07 08:20 50.04230 8.56707 357 ft 16 kts 69°
2026-05-07 08:20 50.04269 8.56868 356 ft 16 kts 69°
2026-05-07 08:20 50.04308 8.57034 358 ft 16 kts 70°
2026-05-07 08:21 50.04348 8.57204 356 ft 17 kts 70°
2026-05-07 08:21 50.04388 8.57375 359 ft 17 kts 70°
2026-05-07 08:21 50.04429 8.57546 360 ft 17 kts 69°
2026-05-07 08:21 50.04472 8.57721 360 ft 17 kts 69°
2026-05-07 08:22 50.04514 8.57899 361 ft 17 kts 70°
2026-05-07 08:22 50.04557 8.58078 359 ft 18 kts 70°
2026-05-07 08:22 50.04599 8.58257 358 ft 18 kts 70°
2026-05-07 08:22 50.04642 8.58438 356 ft 18 kts 70°
2026-05-07 08:23 50.04602 8.58583 358 ft 14 kts 154°
2026-05-07 08:23 50.04521 8.58608 358 ft 12 kts 195°
2026-05-07 08:23 50.04481 8.58546 358 ft 0 kts 244°
2026-05-07 08:23 50.04481 8.58545 358 ft 0 kts 244°
2026-05-07 08:24 50.04454 8.58451 359 ft 37 kts 248°
2026-05-07 08:24 50.04280 8.57718 356 ft 105 kts 250°
2026-05-07 08:24 50.03955 8.56353 359 ft 161 kts 250°
2026-05-07 08:24 50.03516 8.54540 578 ft 187 kts 252°
2026-05-07 08:25 50.03036 8.52612 1166 ft 194 kts 251°
2026-05-07 08:25 50.02514 8.50624 1837 ft 202 kts 244°
2026-05-07 08:25 50.01546 8.49060 2591 ft 203 kts 209°
2026-05-07 08:25 50.00225 8.48386 3262 ft 201 kts 194°
2026-05-07 08:26 49.97381 8.47465 4169 ft 215 kts 195°
2026-05-07 08:26 49.95905 8.46908 4642 ft 221 kts 196°
2026-05-07 08:26 49.94382 8.46269 5003 ft 233 kts 197°
2026-05-07 08:27 49.92767 8.45543 5276 ft 249 kts 200°
2026-05-07 08:27 49.91242 8.44213 5648 ft 255 kts 229°
2026-05-07 08:27 49.90216 8.41999 6308 ft 251 kts 242°
2026-05-07 08:27 49.89337 8.39647 6927 ft 253 kts 243°
2026-05-07 08:28 49.88666 8.37170 7538 ft 250 kts 261°
2026-05-07 08:28 49.88621 8.34485 8048 ft 253 kts 286°
2026-05-07 08:28 49.89444 8.32031 8366 ft 265 kts 313°
2026-05-07 08:28 49.90753 8.29968 8935 ft 269 kts 314°
2026-05-07 08:29 49.92074 8.27885 9565 ft 272 kts 313°
2026-05-07 08:29 49.93404 8.25768 10201 ft 274 kts 313°
2026-05-07 08:29 49.94755 8.23603 10560 ft 286 kts 313°
2026-05-07 08:29 49.96174 8.21322 10832 ft 300 kts 313°
2026-05-07 08:30 49.97662 8.18928 11094 ft 315 kts 313°
2026-05-07 08:30 49.99220 8.16420 11377 ft 329 kts 314°
2026-05-07 08:30 50.00813 8.13776 11633 ft 343 kts 311°
2026-05-07 08:30 50.02422 8.10941 11903 ft 357 kts 311°
2026-05-07 08:31 50.04078 8.07991 12233 ft 368 kts 311°
2026-05-07 08:31 50.05767 8.04985 12809 ft 372 kts 311°
2026-05-07 08:31 50.07477 8.01945 13472 ft 374 kts 311°
2026-05-07 08:31 50.09194 7.98897 14047 ft 377 kts 311°
2026-05-07 08:32 50.10933 7.95813 14532 ft 382 kts 311°
2026-05-07 08:32 50.12694 7.92688 15067 ft 385 kts 311°
2026-05-07 08:32 50.14468 7.89539 15598 ft 388 kts 311°
2026-05-07 08:32 50.16251 7.86369 16121 ft 392 kts 311°
2026-05-07 08:33 50.18058 7.83153 16629 ft 395 kts 311°
2026-05-07 08:33 50.19882 7.79903 17145 ft 399 kts 311°
2026-05-07 08:33 50.21718 7.76629 17693 ft 401 kts 311°
2026-05-07 08:33 50.23557 7.73344 18306 ft 402 kts 311°
2026-05-07 08:34 50.25403 7.70043 18765 ft 405 kts 311°
2026-05-07 08:34 50.27263 7.66713 19231 ft 407 kts 311°
2026-05-07 08:34 50.29139 7.63352 19677 ft 410 kts 311°
2026-05-07 08:34 50.31022 7.59973 20093 ft 414 kts 311°
2026-05-07 08:35 50.32921 7.56558 20505 ft 416 kts 311°
2026-05-07 08:35 50.34827 7.53129 20974 ft 418 kts 311°
2026-05-07 08:35 50.36747 7.49667 21417 ft 421 kts 311°
2026-05-07 08:35 50.38670 7.46196 21895 ft 422 kts 311°
2026-05-07 08:36 50.40605 7.42699 22348 ft 424 kts 311°
2026-05-07 08:36 50.42546 7.39189 22789 ft 427 kts 311°
2026-05-07 08:36 50.44499 7.35653 23204 ft 429 kts 311°
2026-05-07 08:36 50.46464 7.32087 23598 ft 432 kts 311°
2026-05-07 08:37 50.48438 7.28500 23926 ft 436 kts 311°
2026-05-07 08:37 50.50430 7.24874 24228 ft 439 kts 311°
2026-05-07 08:37 50.52429 7.21231 24620 ft 440 kts 311°
2026-05-07 08:37 50.54407 7.17620 24916 ft 443 kts 311°
2026-05-07 08:38 50.56458 7.13872 25225 ft 446 kts 311°
2026-05-07 08:38 50.58485 7.10162 25591 ft 448 kts 311°
2026-05-07 08:38 50.60496 7.06476 25980 ft 449 kts 311°
2026-05-07 08:38 50.62535 7.02733 26364 ft 450 kts 311°
2026-05-07 08:39 50.64578 6.98979 26679 ft 452 kts 310°
2026-05-07 08:39 50.66636 6.95192 26957 ft 455 kts 310°
2026-05-07 08:39 50.68706 6.91377 27181 ft 460 kts 310°
2026-05-07 08:39 50.70797 6.87516 27464 ft 462 kts 310°
2026-05-07 08:40 50.72892 6.83642 27813 ft 463 kts 310°
2026-05-07 08:40 50.74982 6.79768 28339 ft 460 kts 311°
2026-05-07 08:40 50.77051 6.75929 28901 ft 457 kts 311°
2026-05-07 08:40 50.79115 6.72097 29336 ft 456 kts 311°
2026-05-07 08:41 50.81178 6.68260 29696 ft 458 kts 311°
2026-05-07 08:41 50.83243 6.64413 30078 ft 458 kts 310°
2026-05-07 08:41 50.85301 6.60576 30431 ft 457 kts 310°
2026-05-07 08:41 50.87365 6.56722 30781 ft 456 kts 310°
2026-05-07 08:42 50.89389 6.52938 31132 ft 455 kts 310°
2026-05-07 08:42 50.91432 6.49108 31497 ft 454 kts 310°
2026-05-07 08:42 50.93471 6.45278 31839 ft 453 kts 310°
2026-05-07 08:42 50.95508 6.41449 32148 ft 453 kts 310°
2026-05-07 08:43 50.97542 6.37618 32431 ft 454 kts 310°
2026-05-07 08:43 50.99579 6.33779 32683 ft 455 kts 310°
2026-05-07 08:43 51.01615 6.29934 32918 ft 456 kts 310°
2026-05-07 08:43 51.03673 6.26042 33184 ft 457 kts 310°
2026-05-07 08:44 51.05722 6.22162 33434 ft 457 kts 310°
2026-05-07 08:44 51.07778 6.18263 33661 ft 459 kts 310°
2026-05-07 08:44 51.09834 6.14359 33862 ft 460 kts 310°
2026-05-07 08:44 51.11893 6.10442 34036 ft 462 kts 310°
2026-05-07 08:45 51.16018 6.02576 34034 ft 462 kts 310°
2026-05-07 08:45 51.20139 5.94702 34036 ft 462 kts 309°
2026-05-07 08:46 51.24248 5.86817 34047 ft 461 kts 309°
2026-05-07 08:46 51.28376 5.78868 34046 ft 463 kts 309°
2026-05-07 08:47 51.32464 5.70979 34045 ft 463 kts 309°
2026-05-07 08:47 51.36573 5.63029 34045 ft 463 kts 309°
2026-05-07 08:48 51.40683 5.55042 34048 ft 462 kts 309°
2026-05-07 08:48 51.44095 5.48391 34047 ft 463 kts 309°
2026-05-07 08:49 51.48185 5.40405 34049 ft 463 kts 309°
2026-05-07 08:49 51.52271 5.32392 34047 ft 464 kts 309°
2026-05-07 08:50 51.56366 5.24349 34051 ft 463 kts 308°
2026-05-07 08:50 51.60439 5.16315 34072 ft 463 kts 308°
2026-05-07 08:51 51.64509 5.08261 34071 ft 463 kts 308°
2026-05-07 08:51 51.68569 5.00203 34071 ft 463 kts 308°
2026-05-07 08:52 51.72624 4.92131 34069 ft 463 kts 308°
2026-05-07 08:52 51.76677 4.84036 34074 ft 463 kts 308°
2026-05-07 08:53 51.80728 4.75921 34062 ft 463 kts 308°
2026-05-07 08:53 51.84767 4.67805 34068 ft 463 kts 308°
2026-05-07 08:54 51.88783 4.59709 34065 ft 463 kts 308°
2026-05-07 08:54 51.92815 4.51553 34072 ft 463 kts 308°
2026-05-07 08:55 51.96839 4.43388 34077 ft 463 kts 308°
2026-05-07 08:55 52.00850 4.35222 34079 ft 462 kts 308°
2026-05-07 08:56 52.04856 4.27041 34062 ft 462 kts 308°
2026-05-07 08:56 52.08861 4.18840 34056 ft 462 kts 308°
2026-05-07 08:57 52.12857 4.10627 34074 ft 462 kts 308°
2026-05-07 08:57 52.16850 4.02393 34073 ft 462 kts 307°
2026-05-07 08:58 52.20840 3.94142 34078 ft 461 kts 307°
2026-05-07 08:58 52.24784 3.85931 34081 ft 463 kts 308°
2026-05-07 08:59 52.28783 3.77616 34081 ft 465 kts 308°
2026-05-07 08:59 52.32773 3.69292 34083 ft 464 kts 308°
2026-05-07 09:00 52.36758 3.60942 34080 ft 464 kts 308°
2026-05-07 09:00 52.40722 3.52610 34082 ft 463 kts 308°
2026-05-07 09:01 52.44676 3.44261 34084 ft 463 kts 309°
2026-05-07 09:01 52.48640 3.35874 34083 ft 466 kts 309°
2026-05-07 09:02 52.52623 3.27415 34087 ft 468 kts 309°
2026-05-07 09:02 52.56579 3.18992 34090 ft 468 kts 309°
2026-05-07 09:03 52.60553 3.10503 34085 ft 468 kts 309°
2026-05-07 09:03 52.64526 3.01984 34085 ft 468 kts 309°
2026-05-07 09:04 52.68488 2.93446 34096 ft 470 kts 309°
2026-05-07 09:04 52.72467 2.84861 34096 ft 470 kts 309°
2026-05-07 09:05 52.76433 2.76265 34095 ft 470 kts 309°
2026-05-07 09:05 52.80399 2.67649 34097 ft 469 kts 309°
2026-05-07 09:06 52.84351 2.59033 34106 ft 470 kts 309°
2026-05-07 09:06 52.88296 2.50398 34093 ft 470 kts 309°
2026-05-07 09:07 52.92243 2.41729 34096 ft 470 kts 309°
2026-05-07 09:07 52.96186 2.33042 34101 ft 470 kts 309°
2026-05-07 09:08 53.00098 2.24394 34098 ft 470 kts 309°
2026-05-07 09:08 53.04021 2.15690 34101 ft 470 kts 309°
2026-05-07 09:09 53.07942 2.06959 34105 ft 470 kts 309°
2026-05-07 09:09 53.11857 1.98214 34102 ft 471 kts 308°
2026-05-07 09:10 53.15775 1.89430 34101 ft 472 kts 308°
2026-05-07 09:10 53.19690 1.80621 34102 ft 472 kts 308°
2026-05-07 09:11 53.23590 1.71813 34105 ft 472 kts 308°
2026-05-07 09:11 53.27449 1.62965 34104 ft 470 kts 306°
2026-05-07 09:12 53.30794 1.53548 34098 ft 472 kts 298°
2026-05-07 09:12 53.33424 1.43468 34100 ft 473 kts 291°
2026-05-07 09:13 53.35303 1.32868 34104 ft 474 kts 285°
2026-05-07 09:13 53.36853 1.22094 34106 ft 474 kts 285°
2026-05-07 09:14 53.38385 1.11324 34103 ft 474 kts 285°
2026-05-07 09:14 53.39918 1.00546 34096 ft 474 kts 284°
2026-05-07 09:15 53.41444 0.89773 34102 ft 475 kts 284°
2026-05-07 09:15 53.42960 0.78986 34099 ft 475 kts 284°
2026-05-07 09:16 53.44468 0.68190 34101 ft 475 kts 284°
2026-05-07 09:16 53.45966 0.57382 34095 ft 475 kts 284°
2026-05-07 09:17 53.47455 0.46568 34086 ft 475 kts 284°
2026-05-07 09:17 53.48930 0.35759 34085 ft 475 kts 284°
2026-05-07 09:18 53.50394 0.24931 34086 ft 475 kts 284°
2026-05-07 09:18 53.51846 0.14094 34084 ft 475 kts 283°
2026-05-07 09:19 53.53292 0.03246 34086 ft 475 kts 283°
2026-05-07 09:19 53.54724 -0.07581 34100 ft 474 kts 283°
2026-05-07 09:20 53.56364 -0.18328 34098 ft 473 kts 291°
2026-05-07 09:20 53.59302 -0.28212 34101 ft 472 kts 305°
2026-05-07 09:21 53.63527 -0.36608 34103 ft 470 kts 319°
2026-05-07 09:21 53.68725 -0.43232 34103 ft 468 kts 328°
2026-05-07 09:22 53.73273 -0.48337 34101 ft 468 kts 327°
2026-05-07 09:22 53.78652 -0.54522 34099 ft 466 kts 326°
2026-05-07 09:23 53.83995 -0.60742 34093 ft 466 kts 326°
2026-05-07 09:23 53.89329 -0.66970 34084 ft 465 kts 326°
2026-05-07 09:24 53.94666 -0.73214 34086 ft 466 kts 325°
2026-05-07 09:24 53.99777 -0.79995 34086 ft 466 kts 319°
2026-05-07 09:25 54.04423 -0.87666 34077 ft 465 kts 313°
2026-05-07 09:25 54.08547 -0.96159 34077 ft 465 kts 307°
2026-05-07 09:26 54.12337 -1.05110 34078 ft 466 kts 306°
2026-05-07 09:26 54.16110 -1.14128 34075 ft 467 kts 306°
2026-05-07 09:27 54.19910 -1.23238 34075 ft 468 kts 306°
2026-05-07 09:28 54.25570 -1.36829 34076 ft 465 kts 305°
2026-05-07 09:28 54.29305 -1.45841 34074 ft 463 kts 305°
2026-05-07 09:29 54.33031 -1.54876 34079 ft 464 kts 305°
2026-05-07 09:29 54.36761 -1.63938 34076 ft 465 kts 304°
2026-05-07 09:30 54.40483 -1.73006 34071 ft 464 kts 304°
2026-05-07 09:30 54.44191 -1.82095 34063 ft 465 kts 304°
2026-05-07 09:31 54.47903 -1.91214 34059 ft 465 kts 304°
2026-05-07 09:31 54.51595 -2.00302 34045 ft 461 kts 304°
2026-05-07 09:32 54.55255 -2.09368 34040 ft 460 kts 303°
2026-05-07 09:32 54.58913 -2.18459 34029 ft 462 kts 303°
2026-05-07 09:33 54.62584 -2.27619 34027 ft 464 kts 303°
2026-05-07 09:33 54.66260 -2.36802 34024 ft 464 kts 303°
2026-05-07 09:34 54.69923 -2.45988 34018 ft 464 kts 303°
2026-05-07 09:34 54.73580 -2.55193 34021 ft 462 kts 303°
2026-05-07 09:35 54.77200 -2.64353 34014 ft 460 kts 303°
2026-05-07 09:35 54.80838 -2.73609 34016 ft 463 kts 303°
2026-05-07 09:36 54.84472 -2.82870 34002 ft 464 kts 303°
2026-05-07 09:36 54.88104 -2.92162 33998 ft 465 kts 303°
2026-05-07 09:37 54.91725 -3.01460 34000 ft 465 kts 303°
2026-05-07 09:37 54.95343 -3.10787 34007 ft 464 kts 303°
2026-05-07 09:38 54.98952 -3.20117 34013 ft 463 kts 302°
2026-05-07 09:38 55.02539 -3.29436 34005 ft 463 kts 302°
2026-05-07 09:39 55.06127 -3.38783 34005 ft 463 kts 302°
2026-05-07 09:39 55.09707 -3.48162 34005 ft 464 kts 302°
2026-05-07 09:40 55.13282 -3.57557 34001 ft 464 kts 301°